Home   Weather   Ludwigsburg   Past weeks

Flag for Germany Past Weather in Ludwigsburg, Baden-Württemberg, Germany — Yesterday and Last 2 Weeks

Now
27 °F

Clear.


Feels Like: 27 °F
Forecast: 26 / 37 °F
Wind: 1 mph from North

Location: Stuttgart-Echterdingen

Current Time: Dec 6, 2016 at 8:55:47 pm

Latest Report: Dec 6, 2016 at 8:20 pm


Visibility: 10 mi

Pressure: 30.48 "Hg

Humidity: 100%

Dew Point: 27 °F

Location of LudwigsburgLocation

Past Weather in Ludwigsburg — Graph

°F

Ludwigsburg Temperature Yesterday

Maximum temperature yesterday: 41 °F (at 3:20 pm)
Minimum temperature yesterday: 23 °F (at 3:50 am)
Average temperature yesterday: 30 °F

High & Low Weather Summary for the Past Weeks

 TemperatureHumidityPressure
High54 °F (Nov 21, 11:20 pm)100% (Nov 23, 12:20 am)30.51 "Hg (Nov 23, 12:20 am)
Low19 °F (Nov 30, 5:20 am)31% (Dec 1, 1:50 pm)29.62 "Hg (Nov 21, 9:20 pm)
Average37 °F84%30.18 "Hg
* Reported Nov 21 7:20 pm — Dec 6 7:50 pm, Ludwigsburg, Weather by CustomWeather, © 2016

Note: Actual official high and low records may vary slightly from our data, if they occured in-between our weather recording intervals... More about our weather records

Advertising

Ludwigsburg Weather History for the Previous 24 Hours

Scroll right to see more
 ConditionsComfort  
Time TempWeatherWind HumidityBarometerVisibility
7:50 pm
Tue, Dec 6
28 °FClear.1 mph93%30.48 "Hg10 mi
6:50 pm30 °FClear.2 mph93%30.45 "Hg10 mi
6:20 pm32 °FClear.3 mph87%30.45 "Hg10 mi
5:50 pm32 °FClear.5 mph93%30.45 "Hg10 mi
5:20 pm34 °FClear.1 mph87%30.45 "Hg10 mi
4:50 pm36 °FClear.No wind81%30.45 "Hg10 mi
4:20 pm36 °FSunny.3 mph81%30.45 "Hg10 mi
3:50 pm39 °FSunny.3 mph75%30.45 "Hg10 mi
3:20 pm41 °FSunny.3 mph70%30.42 "Hg10 mi
2:50 pm41 °FSunny.2 mph70%30.42 "Hg10 mi
2:20 pm41 °FPassing clouds.5 mph76%30.42 "HgN/A
1:50 pm41 °FSunny.2 mph70%30.42 "Hg10 mi
1:20 pm39 °FSunny.No wind75%30.42 "Hg10 mi
12:50 pm39 °FSunny.1 mph70%30.42 "Hg10 mi
12:20 pm37 °FSunny.No wind75%30.42 "Hg10 mi
11:50 am36 °FSunny.1 mph75%30.42 "Hg10 mi
11:20 am32 °FClear.1 mph87%30.42 "Hg6 mi
10:50 am30 °FClear.2 mph93%30.42 "Hg5 mi
10:20 am28 °FClear.2 mph93%30.42 "Hg5 mi
9:50 am28 °FClear.1 mph93%30.42 "Hg5 mi
9:20 am27 °FClear.1 mph100%30.42 "Hg5 mi
8:50 am23 °FClear.1 mph100%30.42 "Hg5 mi
8:20 am23 °FClear.1 mph93%30.39 "Hg5 mi
7:50 am23 °FClear.2 mph93%30.39 "Hg4 mi
7:20 am23 °FClear.1 mph93%30.39 "Hg5 mi
6:50 am23 °FClear.1 mph93%30.39 "Hg5 mi
6:20 am23 °FClear.1 mph93%30.36 "Hg6 mi
5:50 am23 °FLight fog.No wind93%30.36 "Hg6 mi
5:20 am23 °FLight fog.1 mph100%30.36 "Hg6 mi
4:50 am23 °FLight fog.2 mph100%30.36 "Hg6 mi
4:20 am23 °FLight fog.1 mph93%30.36 "Hg4 mi
3:50 am23 °FLight fog.1 mph93%30.36 "Hg3 mi
3:20 am23 °FLight fog.1 mph100%30.36 "Hg2 mi
2:50 am23 °FLight fog.1 mph100%30.36 "Hg3 mi
2:20 am23 °FLight fog.No wind100%30.36 "Hg3 mi
1:50 am23 °FCold.1 mph100%30.36 "Hg5 mi
1:20 am25 °FLight fog.No wind93%30.36 "Hg5 mi
12:50 am25 °FLight fog.1 mph93%30.36 "Hg6 mi
12:20 am25 °FLight fog.1 mph100%30.36 "Hg6 mi
11:50 pm
Mon, Dec 5
25 °FLight fog.2 mph100%30.36 "Hg6 mi
11:20 pm27 °FLight fog.2 mph93%30.36 "Hg6 mi
10:50 pm27 °FPassing clouds.1 mph100%30.36 "HgN/A
10:20 pm27 °FPassing clouds.1 mph100%30.33 "HgN/A
9:50 pm28 °FClear.No wind93%30.33 "Hg10 mi
9:20 pm28 °FClear.2 mph93%30.33 "Hg10 mi
8:50 pm28 °FClear.1 mph100%30.33 "Hg10 mi
8:20 pm28 °FClear.2 mph93%30.33 "Hg10 mi
Weather by CustomWeather, © 2016

See weather overviewHow to use our weather pages